[[{"header":{"parameterUnit":"m.s-1","parameterCategory":1,"la1":30.2991,"la2":30.254,"lo1":-89.0895,"lo2":-89.0444,"dy":0.0017,"dx":0.0017,"nx":28,"ny":28,"refTime":"2024-02-23T03:00:00:Z","depth":0,"parameterNumber":2,"parameterNumberName":"U-component_of_WINDS"},"data":[0,0,0,0,0,0,0,0,0,0,0,0,0,0,0,0,0,0,0,0,0,0,0,0,0,0,0,0,0,0,0,0,0,0,0,0,0,0,0,0,0,0,0,0,0,0,0,0,0,0,0,0,0,0,0,0,0,0,4.4791,4.4791,0,4.4775,4.4775,4.4775,4.4715,4.4714,4.4712,4.4711,4.4696,4.4697,4.4698,0,0,0,0,0,0,0,0,0,0,0,0,0,4.4774,4.4774,4.4791,4.4791,4.4791,4.4775,4.4775,4.4775,4.4715,4.4714,4.4712,4.471,4.4696,4.4697,4.4698,0,0,0,0,0,0,0,0,0,0,0,0,0,4.4772,4.4775,4.4791,4.4759,4.4756,4.4775,4.4775,4.4775,4.4716,4.4714,4.4712,4.471,4.4695,4.4696,4.4698,4.4747,0,0,4.4702,4.4702,0,0,0,0,0,0,0,0,4.4772,4.4773,4.4764,4.4762,4.4758,4.4745,4.4763,4.4765,4.4716,4.4731,4.4711,4.4709,4.4714,4.4714,4.4715,4.4746,4.4745,4.4702,4.4703,4.4703,4.4704,0,0,0,0,0,0,0,4.4772,4.4773,4.4785,4.4764,4.4761,4.4747,4.4744,4.4763,4.4734,4.473,4.4725,4.4724,4.4712,4.4714,4.4714,4.4745,4.4702,4.4703,4.4704,4.4704,4.4819,4.4821,0,0,0,0,0,0,4.4777,4.4774,4.4785,4.4784,4.476,4.4749,4.4746,4.4751,4.4734,4.4729,4.4726,4.4721,4.4713,4.4713,4.4714,4.4773,4.4703,4.4704,4.4705,4.4817,4.482,4.4822,0,0,0,0,0,0,4.4777,4.4778,4.4786,4.4778,4.4778,4.4751,4.4758,4.4752,4.4754,4.4731,4.4726,4.4733,4.4711,4.4712,4.474,4.4771,4.4705,4.4706,4.4814,4.4818,4.4821,4.4889,0,0,0,0,0,0,4.4776,4.4779,4.4796,4.4779,4.4778,4.4812,4.476,4.4753,4.4756,4.475,4.4736,4.4732,4.471,4.4738,4.4741,4.4772,4.4707,4.4811,4.4816,4.482,4.4884,4.4895,4.4904,0,0,0,0,0,4.4776,4.4815,4.4797,4.4799,4.48,4.4814,4.4814,4.4786,4.4759,4.4777,4.4763,4.4733,4.4767,4.4741,4.4744,4.4776,4.4809,4.4815,4.482,4.488,4.4893,4.4903,0,0,0,0,0,0,4.4837,4.4812,4.4792,4.4827,4.4823,4.4804,4.4825,4.48,4.4804,4.4798,4.4765,4.4762,4.4796,4.4788,4.476,4.4824,4.4783,4.4789,4.4828,4.484,4.485,4.4852,4.4708,0,0,0,0,0,4.4854,4.4867,4.4845,4.4878,4.4877,4.4852,4.4857,4.4837,4.4831,4.4829,4.4817,4.4813,4.4824,4.4831,4.4839,4.4882,4.488,4.4906,4.4915,4.4923,4.493,4.4956,4.4968,4.4839,4.4839,4.4839,0,0,4.4891,4.4879,4.4889,4.489,4.4885,4.4901,4.4851,4.4868,4.488,4.4832,4.4859,4.485,4.4844,4.4881,4.4896,4.4875,4.4965,4.493,4.4937,4.4938,4.4962,4.4975,4.4986,4.4843,4.4842,4.4841,0,0,4.4965,4.4956,4.4985,4.4981,4.4973,4.4957,4.4964,4.4949,4.4941,4.4967,4.4932,4.4946,4.4963,4.4962,4.4963,4.504,4.5014,4.5043,4.5095,4.5121,4.5131,4.514,4.5171,4.5182,4.5049,4.5049,4.505,0,4.5012,4.5033,4.5002,4.5024,4.5027,4.4984,4.5014,4.5011,4.5007,4.501,4.4987,4.501,4.5002,4.504,4.506,4.5061,4.507,4.5046,4.5132,4.5141,4.5148,4.5177,4.5189,4.5053,4.5053,4.5053,4.5052,0,4.5092,4.5108,4.5131,4.513,4.5135,4.516,4.5135,4.5144,4.5124,4.511,4.5139,4.5129,4.5136,4.5142,4.5122,4.5179,4.5166,4.5138,4.5096,4.5165,4.5192,4.5203,4.5059,4.5058,4.5056,4.5055,0,0,4.5205,4.5187,4.5197,4.5197,4.5186,4.5198,4.5223,4.5229,4.524,4.5238,4.526,4.5277,4.5251,4.5253,4.5232,4.5254,4.5321,4.5223,4.5223,4.5245,4.5386,4.541,4.5423,4.5302,4.5304,4.5306,4.5388,0,4.5278,4.5319,4.5293,4.5338,4.5354,4.5315,4.5336,4.5333,4.5322,4.5334,4.5321,4.5335,4.5299,4.53,4.532,4.5308,4.5349,4.5302,4.5324,4.5325,4.533,4.5436,4.5461,4.5538,4.5398,4.5399,4.54,0,4.537,4.5374,4.5421,4.5411,4.5416,4.5436,4.5442,4.5454,4.545,4.5441,4.5444,4.5419,4.5444,4.5402,4.5437,4.5406,4.5414,4.5409,4.5412,4.5415,4.5369,4.5445,4.5562,4.5575,4.5416,4.5415,4.5414,0,4.5452,4.5469,4.55,4.5501,4.5488,4.5504,4.55,4.5494,4.5501,4.5506,4.5511,4.5518,4.5524,4.5531,4.551,4.548,4.555,4.5505,4.5544,4.5545,4.5562,4.5562,4.5685,4.5563,4.5563,4.5562,4.5562,0,4.5538,4.5569,4.5537,4.5557,4.5591,4.5562,4.5597,4.5589,4.5585,4.5603,4.5569,4.5587,4.5556,4.5572,4.5555,4.5589,4.5591,4.5585,4.5581,4.559,4.5591,4.5596,4.5592,4.5565,4.5565,4.5564,4.5564,0,4.5636,4.5615,4.5647,4.5634,4.5631,4.5658,4.5646,4.5665,4.5651,4.5675,4.5679,4.5659,4.5676,4.5654,4.5669,4.5658,4.5705,4.5691,4.5707,4.5704,4.5746,4.5744,4.5879,4.5897,4.576,4.5762,4.5763,0,4.5694,4.5718,4.5707,4.5717,4.5715,4.5731,4.5738,4.5711,4.572,4.572,4.5739,4.5753,4.5763,4.5793,4.578,4.5792,4.578,4.5826,4.5781,4.5791,4.5785,4.5785,4.5789,4.5837,4.5838,4.584,4.5841,0,4.5801,4.579,4.5801,4.5811,4.582,4.5826,4.5829,4.5839,4.5811,4.5823,4.5841,4.5849,4.5865,4.588,4.5889,4.5886,4.586,4.5855,4.5865,4.5876,4.5886,4.5885,4.5735,4.5852,4.5851,4.585,4.585,4.5849,4.5883,4.5903,4.59,4.5915,4.5914,4.5919,4.5936,4.5926,4.5939,4.5951,4.5933,4.5956,4.5955,4.5964,4.5964,4.5983,4.5963,4.5977,4.5981,4.5986,4.5994,4.588,4.5984,4.5983,4.5983,4.5983,4.5982,0,4.5991,4.5987,4.6001,4.6007,4.602,4.5993,4.5996,4.6009,4.6029,4.6029,4.6041,4.6062,4.6078,4.6067,4.608,4.6098,4.6086,4.6102,4.6102,4.6103,4.6009,4.6,4.6112,4.6112,4.6112,4.6112,4.6112,4.6112,4.6048,4.6083,4.6072,4.6106,4.6102,4.6124,4.6129,4.6134,4.6134,4.616,4.6173,4.6165,4.6162,4.6176,4.619,4.6186,4.6195,4.6216,4.6208,4.6122,4.6109,4.6097,4.6089,4.6217,4.6217,4.6301,4.6302,4.6302]},{"header":{"parameterUnit":"m.s-1","parameterCategory":1,"la1":30.2991,"la2":30.254,"lo1":-89.0895,"lo2":-89.0444,"dy":0.0017,"dx":0.0017,"nx":28,"ny":28,"refTime":"2024-02-23T03:00:00:Z","depth":0,"parameterNumber":3,"parameterNumberName":"V-component_of_WINDS"},"data":[0,0,0,0,0,0,0,0,0,0,0,0,0,0,0,0,0,0,0,0,0,0,0,0,0,0,0,0,0,0,0,0,0,0,0,0,0,0,0,0,0,0,0,0,0,0,0,0,0,0,0,0,0,0,0,0,0,0,-0.4598,-0.4597,0,-0.4499,-0.4498,-0.4497,-0.4466,-0.4466,-0.4467,-0.4467,-0.4369,-0.4366,-0.4363,0,0,0,0,0,0,0,0,0,0,0,0,0,-0.4763,-0.476,-0.4598,-0.4596,-0.4595,-0.4499,-0.4498,-0.4496,-0.4466,-0.4466,-0.4467,-0.4467,-0.437,-0.4367,-0.4363,0,0,0,0,0,0,0,0,0,0,0,0,0,-0.4681,-0.4759,-0.4598,-0.4568,-0.4565,-0.4499,-0.4498,-0.4496,-0.4465,-0.4466,-0.4467,-0.4467,-0.4371,-0.4367,-0.4362,-0.4321,0,0,-0.4348,-0.4347,0,0,0,0,0,0,0,0,-0.4685,-0.4675,-0.4574,-0.457,-0.4566,-0.4495,-0.452,-0.4437,-0.4465,-0.4503,-0.4467,-0.4468,-0.4411,-0.4403,-0.4383,-0.4316,-0.4312,-0.4348,-0.4345,-0.4343,-0.4342,0,0,0,0,0,0,0,-0.4691,-0.4679,-0.4559,-0.4572,-0.4568,-0.4561,-0.455,-0.4504,-0.4454,-0.45,-0.4497,-0.4486,-0.4409,-0.4388,-0.4381,-0.431,-0.4348,-0.4344,-0.4341,-0.434,-0.4205,-0.4204,0,0,0,0,0,0,-0.4701,-0.4684,-0.4562,-0.4556,-0.4628,-0.4557,-0.4545,-0.4517,-0.4455,-0.4446,-0.4486,-0.4485,-0.4395,-0.4386,-0.4377,-0.4324,-0.4343,-0.4339,-0.4337,-0.4206,-0.4205,-0.4204,0,0,0,0,0,0,-0.4705,-0.4691,-0.4566,-0.4619,-0.4602,-0.4554,-0.4523,-0.4515,-0.4494,-0.4444,-0.4435,-0.4473,-0.4395,-0.4383,-0.4335,-0.432,-0.4337,-0.4333,-0.4207,-0.4206,-0.4204,-0.4218,0,0,0,0,0,0,-0.471,-0.4692,-0.4675,-0.4619,-0.46,-0.4524,-0.4522,-0.4513,-0.4485,-0.4484,-0.443,-0.4421,-0.4395,-0.4342,-0.433,-0.4314,-0.4329,-0.4208,-0.4206,-0.4205,-0.4219,-0.4218,-0.4217,0,0,0,0,0,-0.4716,-0.4683,-0.4674,-0.466,-0.4577,-0.4523,-0.4513,-0.4482,-0.4484,-0.4467,-0.4435,-0.4423,-0.4324,-0.4337,-0.4324,-0.4306,-0.4209,-0.4207,-0.4205,-0.422,-0.4218,-0.4217,0,0,0,0,0,0,-0.474,-0.4675,-0.4665,-0.4613,-0.4574,-0.4518,-0.4495,-0.4481,-0.4441,-0.4441,-0.4406,-0.4394,-0.4348,-0.4323,-0.4338,-0.4263,-0.4266,-0.4261,-0.4282,-0.428,-0.4279,-0.4286,-0.4326,0,0,0,0,0,-0.4739,-0.47,-0.4646,-0.4606,-0.4586,-0.4544,-0.452,-0.45,-0.4458,-0.4442,-0.4406,-0.4368,-0.4328,-0.4302,-0.4263,-0.4215,-0.4204,-0.4197,-0.4196,-0.4195,-0.4192,-0.4166,-0.4162,-0.4198,-0.4198,-0.4198,0,0,-0.4737,-0.4697,-0.4675,-0.4609,-0.4577,-0.4538,-0.4531,-0.449,-0.4461,-0.4436,-0.4388,-0.4361,-0.4315,-0.4267,-0.4244,-0.4244,-0.4179,-0.4193,-0.4193,-0.4189,-0.4163,-0.416,-0.4157,-0.4196,-0.4197,-0.4197,0,0,-0.4714,-0.4679,-0.4642,-0.4609,-0.456,-0.4532,-0.4523,-0.447,-0.4451,-0.4401,-0.4382,-0.4348,-0.428,-0.4248,-0.4224,-0.4189,-0.4177,-0.4178,-0.4172,-0.4147,-0.4144,-0.4141,-0.413,-0.4126,-0.4174,-0.4174,-0.4174,0,-0.4718,-0.4658,-0.4625,-0.4585,-0.4557,-0.4532,-0.4494,-0.4465,-0.4405,-0.4387,-0.4388,-0.4302,-0.427,-0.4215,-0.4206,-0.4187,-0.4177,-0.4184,-0.4147,-0.4144,-0.4141,-0.4129,-0.4125,-0.4175,-0.4175,-0.4175,-0.4175,0,-0.4665,-0.4624,-0.46,-0.4542,-0.4512,-0.4474,-0.4436,-0.441,-0.4392,-0.4365,-0.4316,-0.4277,-0.4229,-0.4214,-0.4197,-0.4157,-0.4158,-0.4154,-0.4156,-0.4138,-0.4127,-0.4122,-0.4176,-0.4175,-0.4175,-0.4175,0,0,-0.4654,-0.4579,-0.457,-0.4544,-0.4488,-0.4456,-0.4418,-0.437,-0.4348,-0.4309,-0.4276,-0.4219,-0.4214,-0.4186,-0.4166,-0.4144,-0.412,-0.4141,-0.414,-0.4139,-0.4074,-0.4078,-0.4074,-0.4111,-0.411,-0.411,-0.4078,0,-0.4624,-0.4552,-0.4521,-0.4464,-0.4426,-0.4402,-0.4368,-0.4331,-0.4305,-0.427,-0.4242,-0.4202,-0.4198,-0.4181,-0.4158,-0.4128,-0.4107,-0.413,-0.4082,-0.408,-0.4094,-0.4067,-0.4072,-0.4043,-0.4073,-0.4072,-0.4072,0,-0.4578,-0.4537,-0.4476,-0.4425,-0.4408,-0.4378,-0.4333,-0.4299,-0.4257,-0.424,-0.4209,-0.4189,-0.4149,-0.4154,-0.4099,-0.4115,-0.4094,-0.4076,-0.4075,-0.4069,-0.4075,-0.4062,-0.4034,-0.403,-0.4065,-0.4065,-0.4066,0,-0.4577,-0.4506,-0.4461,-0.4439,-0.4378,-0.4358,-0.4332,-0.429,-0.4264,-0.4225,-0.4208,-0.4165,-0.4142,-0.4109,-0.408,-0.4086,-0.4028,-0.403,-0.4013,-0.4014,-0.4002,-0.4003,-0.397,-0.3988,-0.3988,-0.3988,-0.3988,0,-0.4546,-0.4509,-0.4459,-0.4431,-0.439,-0.4356,-0.4317,-0.429,-0.4253,-0.422,-0.4197,-0.4167,-0.4129,-0.4095,-0.4072,-0.403,-0.402,-0.4005,-0.4,-0.4007,-0.4009,-0.3993,-0.3994,-0.3987,-0.3987,-0.3988,-0.3988,0,-0.4537,-0.4502,-0.445,-0.4397,-0.4383,-0.4355,-0.431,-0.4283,-0.4256,-0.4215,-0.4203,-0.4161,-0.412,-0.4087,-0.4033,-0.4017,-0.3974,-0.3967,-0.3987,-0.3984,-0.397,-0.3972,-0.3926,-0.3918,-0.3941,-0.3941,-0.3941,0,-0.452,-0.4491,-0.4435,-0.441,-0.4384,-0.4346,-0.4319,-0.4285,-0.4258,-0.4208,-0.4187,-0.4144,-0.4107,-0.4042,-0.4008,-0.3967,-0.3959,-0.3946,-0.3953,-0.3962,-0.396,-0.3962,-0.3959,-0.3945,-0.3945,-0.3945,-0.3945,0,-0.4493,-0.4477,-0.4438,-0.4393,-0.4362,-0.4325,-0.4288,-0.427,-0.423,-0.4201,-0.4157,-0.4129,-0.4074,-0.4032,-0.3987,-0.3962,-0.3947,-0.3943,-0.3937,-0.3945,-0.3958,-0.3951,-0.3986,-0.3944,-0.3945,-0.3945,-0.3945,-0.3945,-0.4479,-0.4453,-0.4409,-0.4367,-0.4336,-0.4302,-0.4274,-0.4243,-0.4206,-0.4157,-0.414,-0.4096,-0.4056,-0.3994,-0.3969,-0.3935,-0.3934,-0.3925,-0.3923,-0.3921,-0.3922,-0.3963,-0.3926,-0.3926,-0.3926,-0.3926,-0.3926,0,-0.4452,-0.4423,-0.4384,-0.4333,-0.43,-0.4288,-0.4247,-0.4221,-0.4182,-0.4145,-0.4109,-0.406,-0.4019,-0.3982,-0.3939,-0.3919,-0.3912,-0.3909,-0.3911,-0.3905,-0.3925,-0.3935,-0.3916,-0.3916,-0.3916,-0.3916,-0.3916,-0.3916,-0.4434,-0.4389,-0.4368,-0.4307,-0.4279,-0.4234,-0.4212,-0.4181,-0.4151,-0.4097,-0.4063,-0.4038,-0.4001,-0.3956,-0.3919,-0.3909,-0.3895,-0.3894,-0.3883,-0.3902,-0.3904,-0.3905,-0.3914,-0.3891,-0.3891,-0.3865,-0.3865,-0.3865]}]]